• în România
  • Lista ţărilor
  • Pe 7 zile
  • Temperatura apei
  • Hartă satelitară
  • Meteo pe hartă
  • Widget-uri
  • user-avatar
    Intrare

    Meteo pe oră la Krivopavlovka

    Astăzi, 15 August, Miercuri

    Timp Temperatura Precipitaţii Vânt Presiune Umiditate
    00:00 +19°C° 0 mm 1 m/s 758 mmHg 73%
    01:00 +19°C° 0 mm 1 m/s 758 mmHg 74%
    02:00 +18°C° 0 mm 1 m/s 759 mmHg 75%
    03:00 +18°C° 0 mm 1 m/s 759 mmHg 76%
    04:00 +18°C° 0 mm 1 m/s 759 mmHg 75%
    05:00 +19°C° 0 mm 1 m/s 759 mmHg 75%
    06:00 +19°C° 0 mm 1 m/s 760 mmHg 74%
    07:00 +21°C° 0 mm 1 m/s 760 mmHg 67%
    08:00 +21°C° 0 mm 0 m/s 760 mmHg 59%
    09:00 +23°C° 0 mm 0 m/s 760 mmHg 52%
    10:00 +24°C° 0 mm 0 m/s 760 mmHg 47%
    11:00 +27°C° 0 mm 1 m/s 760 mmHg 43%
    12:00 +29°C° 0 mm 1 m/s 760 mmHg 38%
    13:00 +29°C° 0 mm 1 m/s 760 mmHg 36%
    14:00 +29°C° 0 mm 1 m/s 760 mmHg 35%
    15:00 +29°C° 0 mm 2 m/s 759 mmHg 34%
    16:00 +29°C° 0 mm 1 m/s 759 mmHg 36%
    17:00 +28°C° 0 mm 1 m/s 759 mmHg 39%
    18:00 +28°C° 0 mm 1 m/s 759 mmHg 42%
    19:00 +26°C° 0 mm 1 m/s 759 mmHg 44%
    20:00 +25°C° 0 mm 1 m/s 759 mmHg 46%
    21:00 +23°C° 0 mm 1 m/s 759 mmHg 47%
    22:00 +23°C° 0 mm 1 m/s 759 mmHg 48%
    23:00 +21°C° 0 mm 2 m/s 759 mmHg 48%

    Mâine, 16 August, Joi

    Timp Temperatura Precipitaţii Vânt Presiune Umiditate
    00:00 +21°C° 0 mm 2 m/s 759 mmHg 49%
    01:00 +21°C° 0 mm 2 m/s 759 mmHg 49%
    02:00 +20°C° 0 mm 2 m/s 759 mmHg 50%
    03:00 +20°C° 0 mm 2 m/s 759 mmHg 51%
    04:00 +20°C° 0 mm 2 m/s 759 mmHg 52%
    05:00 +20°C° 0 mm 2 m/s 759 mmHg 54%
    06:00 +20°C° 0 mm 2 m/s 759 mmHg 56%
    07:00 +24°C° 0 mm 3 m/s 759 mmHg 52%
    08:00 +26°C° 0 mm 3 m/s 759 mmHg 47%
    09:00 +28°C° 0 mm 4 m/s 759 mmHg 43%
    10:00 +29°C° 0 mm 4 m/s 759 mmHg 41%
    11:00 +30°C° 0 mm 4 m/s 759 mmHg 38%
    12:00 +33°C° 0 mm 4 m/s 758 mmHg 36%
    13:00 +33°C° 0 mm 4 m/s 758 mmHg 35%
    14:00 +33°C° 0 mm 4 m/s 758 mmHg 34%
    15:00 +34°C° 0 mm 3 m/s 758 mmHg 33%
    16:00 +33°C° 0 mm 3 m/s 757 mmHg 36%
    17:00 +31°C° 0 mm 2 m/s 757 mmHg 40%
    18:00 +30°C° 0 mm 2 m/s 757 mmHg 43%
    19:00 +29°C° 0 mm 2 m/s 757 mmHg 45%
    20:00 +27°C° 0 mm 1 m/s 757 mmHg 47%
    21:00 +26°C° 0 mm 1 m/s 757 mmHg 49%
    22:00 +25°C° 0 mm 1 m/s 757 mmHg 50%
    23:00 +25°C° 0 mm 1 m/s 757 mmHg 51%

    Poimâine, 17 August, Vineri

    Timp Temperatura Precipitaţii Vânt Presiune Umiditate
    00:00 +24°C° 0 mm 1 m/s 757 mmHg 51%
    01:00 +24°C° 0 mm 1 m/s 757 mmHg 52%
    02:00 +23°C° 0 mm 1 m/s 757 mmHg 53%
    03:00 +23°C° 0 mm 1 m/s 757 mmHg 54%
    04:00 +23°C° 0 mm 1 m/s 757 mmHg 55%
    05:00 +23°C° 0 mm 1 m/s 757 mmHg 57%
    06:00 +23°C° 0 mm 1 m/s 757 mmHg 58%
    07:00 +24°C° 0 mm 1 m/s 757 mmHg 56%
    08:00 +26°C° 0 mm 1 m/s 758 mmHg 54%
    09:00 +27°C° 0 mm 1 m/s 758 mmHg 52%
    10:00 +27°C° 0 mm 1 m/s 758 mmHg 51%
    11:00 +28°C° 0 mm 2 m/s 758 mmHg 49%
    12:00 +29°C° 0 mm 2 m/s 758 mmHg 47%
    13:00 +29°C° 0,3 mm 3 m/s 757 mmHg 49%
    14:00 +29°C° 0,3 mm 3 m/s 757 mmHg 50%
    15:00 +29°C° 0,3 mm 3 m/s 757 mmHg 52%
    16:00 +28°C° 0,2 mm 4 m/s 757 mmHg 58%
    17:00 +26°C° 0,2 mm 4 m/s 757 mmHg 65%
    18:00 +25°C° 0,2 mm 4 m/s 757 mmHg 72%
    19:00 +23°C° 0,1 mm 4 m/s 758 mmHg 76%
    20:00 +22°C° 0,1 mm 4 m/s 758 mmHg 80%
    21:00 +20°C° 0,1 mm 3 m/s 758 mmHg 84%
    22:00 +20°C° 0,1 mm 3 m/s 758 mmHg 84%
    23:00 +19°C° 0,1 mm 3 m/s 758 mmHg 83%

    18 August, Sâmbătă

    Timp Temperatura Precipitaţii Vânt Presiune Umiditate
    00:00 +18°C° 0,1 mm 3 m/s 758 mmHg 83%
    01:00 +18°C° 0 mm 3 m/s 759 mmHg 83%
    02:00 +17°C° 0 mm 3 m/s 759 mmHg 83%
    03:00 +17°C° 0 mm 4 m/s 759 mmHg 83%
    04:00 +17°C° 0 mm 4 m/s 759 mmHg 82%
    05:00 +17°C° 0 mm 4 m/s 759 mmHg 82%
    06:00 +17°C° 0 mm 4 m/s 760 mmHg 82%
    07:00 +17°C° 0 mm 5 m/s 760 mmHg 73%
    08:00 +20°C° 0 mm 5 m/s 760 mmHg 64%
    09:00 +21°C° 0 mm 6 m/s 760 mmHg 55%
    10:00 +22°C° 0 mm 6 m/s 760 mmHg 50%
    11:00 +23°C° 0 mm 5 m/s 760 mmHg 46%
    12:00 +25°C° 0 mm 5 m/s 760 mmHg 42%
    13:00 +25°C° 0 mm 5 m/s 760 mmHg 41%
    14:00 +26°C° 0 mm 5 m/s 760 mmHg 40%
    15:00 +26°C° 0 mm 5 m/s 760 mmHg 39%
    16:00 +25°C° 0 mm 5 m/s 760 mmHg 43%
    17:00 +23°C° 0 mm 4 m/s 760 mmHg 47%
    18:00 +22°C° 0 mm 4 m/s 760 mmHg 51%
    19:00 +21°C° 0 mm 4 m/s 760 mmHg 56%
    20:00 +19°C° 0 mm 4 m/s 761 mmHg 60%
    21:00 +18°C° 0 mm 4 m/s 761 mmHg 64%
    22:00 +17°C° 0 mm 4 m/s 761 mmHg 66%
    23:00 +15°C° 0 mm 4 m/s 761 mmHg 68%

    19 August, Duminică

    Timp Temperatura Precipitaţii Vânt Presiune Umiditate
    00:00 +14°C° 0 mm 3 m/s 762 mmHg 70%
    01:00 +14°C° 0 mm 3 m/s 762 mmHg 73%
    02:00 +13°C° 0 mm 3 m/s 762 mmHg 75%
    03:00 +13°C° 0 mm 3 m/s 762 mmHg 78%
    04:00 +13°C° 0 mm 3 m/s 762 mmHg 78%
    05:00 +13°C° 0 mm 3 m/s 762 mmHg 78%
    06:00 +13°C° 0 mm 3 m/s 762 mmHg 78%
    07:00 +16°C° 0 mm 3 m/s 762 mmHg 71%
    08:00 +18°C° 0 mm 4 m/s 762 mmHg 63%
    09:00 +19°C° 0 mm 4 m/s 762 mmHg 56%
    10:00 +20°C° 0 mm 4 m/s 762 mmHg 51%
    11:00 +21°C° 0 mm 4 m/s 762 mmHg 46%
    12:00 +23°C° 0 mm 5 m/s 762 mmHg 42%
    13:00 +23°C° 0 mm 4 m/s 762 mmHg 40%
    14:00 +23°C° 0 mm 4 m/s 761 mmHg 39%
    15:00 +23°C° 0 mm 4 m/s 761 mmHg 38%
    16:00 +23°C° 0 mm 4 m/s 761 mmHg 42%
    17:00 +22°C° 0 mm 4 m/s 761 mmHg 46%
    18:00 +21°C° 0 mm 3 m/s 761 mmHg 49%
    19:00 +19°C° 0 mm 3 m/s 761 mmHg 54%
    20:00 +18°C° 0 mm 3 m/s 761 mmHg 58%
    21:00 +16°C° 0 mm 2 m/s 761 mmHg 62%
    22:00 +16°C° 0 mm 2 m/s 761 mmHg 65%
    23:00 +15°C° 0 mm 2 m/s 762 mmHg 67%

    20 August, Luni

    Timp Temperatura Precipitaţii Vânt Presiune Umiditate
    00:00 +14°C° 0 mm 2 m/s 762 mmHg 69%
    01:00 +14°C° 0 mm 2 m/s 762 mmHg 72%
    02:00 +14°C° 0 mm 2 m/s 762 mmHg 74%
    03:00 +13°C° 0 mm 2 m/s 762 mmHg 76%
    04:00 +13°C° 0 mm 2 m/s 762 mmHg 76%
    05:00 +13°C° 0 mm 1 m/s 762 mmHg 77%
    06:00 +14°C° 0 mm 1 m/s 762 mmHg 77%
    07:00 +16°C° 0 mm 1 m/s 762 mmHg 70%
    08:00 +19°C° 0 mm 1 m/s 762 mmHg 63%
    09:00 +21°C° 0 mm 1 m/s 762 mmHg 56%
    10:00 +22°C° 0 mm 1 m/s 761 mmHg 50%
    11:00 +23°C° 0 mm 1 m/s 761 mmHg 45%
    12:00 +25°C° 0 mm 1 m/s 761 mmHg 40%
    13:00 +25°C° 0 mm 1 m/s 761 mmHg 38%
    14:00 +26°C° 0 mm 1 m/s 760 mmHg 36%
    15:00 +26°C° 0 mm 1 m/s 760 mmHg 34%
    16:00 +26°C° 0 mm 1 m/s 760 mmHg 37%
    17:00 +23°C° 0 mm 0 m/s 760 mmHg 40%
    18:00 +22°C° 0 mm 0 m/s 760 mmHg 43%
    19:00 +21°C° 0 mm 0 m/s 760 mmHg 45%
    20:00 +19°C° 0 mm 0 m/s 760 mmHg 47%
    21:00 +17°C° 0 mm 0 m/s 760 mmHg 49%
    22:00 +19°C° 0 mm 1 m/s 760 mmHg 51%
    23:00 +18°C° 0 mm 1 m/s 760 mmHg 52%
    Arată mai mult